{"data":{"norad_id":66600,"intl_designator":"2025-270N","name":"STARLINK-35980","alt_names":[],"object_type":"PAYLOAD","status":"ACTIVE","operator":null,"country":"US","launch_date":"2025-11-22","launch_site_code":"AFETR","launch_vehicle":null,"mission":null,"orbit_class":"UNKNOWN","rcs_meters":null,"size_class":null,"mass_kg":null,"dimensions":null,"purposes":["comms"],"wikipedia_slug":null,"has_3d_model":false,"image_url":null,"decayed_at":null,"tle_current":{"epoch":"2026-09-20T08:28:15.109824Z","epoch_age_seconds":99273,"freshness":"FRESH","line1":"1 66600U 25270N   26263.35295266  .00009902  00000+0  36886-3 0  9994","line2":"2 66600  43.0021  37.1201 0001738 269.7815  90.2837 15.27580838 47378","mean_motion":15.27580838,"eccentricity":0.0001738,"inclination_deg":43.0021,"raan_deg":37.1201,"arg_perigee_deg":269.7815,"mean_anomaly_deg":90.2837,"bstar":0.00036886,"rev_number":4737,"period_min":94.266697000817,"perigee_km":481.85411305995,"apogee_km":484.23906047471,"semimajor_km":6861.1835867673,"source":"CELESTRAK","updated_at":"2026-09-21T09:00:35.978233Z"}}}